www.pogodaiklimat.ru

Погода и климат >> Архив погоды >> Пакистан >> Multan


ПОГОДА в Multan

  • Прогноз погоды в Multan
  • Монитор погоды в Multan
  • Климат города

АРХИВ ПОГОДЫ в Multan

Время (UTC), дата Ветер
(напр.,м/с)
 
Видим.   Явления Облачность Т
(С)
Тd
(С)
f
(%)
Тe
(С)
Тes
(С)
Комфортность P
(гПа)
Po
(гПа)
Тmin
(С)
Tmax
(С)
R
(мм)
R24
(мм)
S
(см)
21 18.06 штиль 0 4000 м дым ясно +30.5 +22.5 62 +40 +40 очень
душно
999.1 982.7
00 19.06 ЮВ 1 4000 м дым ясно +29.0 +23.2 71 +39 +39 очень
душно
999.2 985.1
03 19.06 Ю 2 4000 м дым ясно +31.0 +23.1 63 +41 +48 опасность
перегрева
1000.3 986.1 +26.7
06 19.06 штиль 0 4000 м дым 1/0
[Ac trans]
+35.0 +24.5 55 +48 +73 опасность
перегрева
1000.0 985.8
09 19.06 ЮЗ 3 4000 м мгла 3/3 300 м
[Sc diur, vesp]
+38.0 +23.1 43 +48 +60 опасность
перегрева
999.0 1000.0
12 19.06 ЮЗ 2 4000 м мгла 1/1 300 м
[Sc diur, vesp]
+39.5 +24.2 42 +51 +55 опасность
перегрева
997.0 1003.2 +40.1
15 19.06 штиль 0 4000 м мгла 6/3 1200 м
[Sc Ac As]
+37.0 +24.4 49 +49 +49 опасность
перегрева
997.3 997.0
18 19.06 штиль 0 4000 м дым 3/0
[Ac trans]
+35.5 +24.3 52 +47 +47 опасность
перегрева
997.4 983.3
21 19.06 ЮЗ 2 4000 м дым ясно +33.5 +25.1 62 +48 +48 опасность
перегрева
998.2 981.3
00 20.06 Ю 2 4000 м дым 3/0
[Ac trans]
+32.5 +24.0 61 +44 +44 опасность
перегрева
998.7 984.5
03 20.06 штиль 0 4000 м дым ясно +33.5 +25.1 62 +48 +57 опасность
перегрева
1000.3 986.1 +30.5
06 20.06 штиль 0 4000 м мгла ясно +39.0 +22.9 40 1000.6 1001.0
09 20.06 ЮВ 3 4000 м мгла ясно +41.0 +20.7 31 +47 +62 опасность
перегрева
999.0 999.0
12 20.06 штиль 0 4000 м мгла 6/3 1200 м
[Sc diur, vesp Ac As]
+41.0 +21.7 33 +48 +51 опасность
перегрева
997.4 1001.4 +42.1
15 20.06 СВ 6 2000 м гроза без осадков 9/1 900 м
[Cb cap Ac As]
+31.5 +19.4 49 +37 +37 очень
душно
1000.4 1000.0
18 20.06 штиль 0 4000 м дым {гроза} 8/4 1200 м
[Sc Ac trans]
+29.0 +19.9 58 +35 +35 очень
душно
1000.7 986.5
21 20.06 штиль 0 4000 м дым 9/8 300 м
[Sc Ac As]
+29.5 +19.7 56 +36 +36 очень
душно
1000.4 1000.0
00 21.06 СВ 2 4000 м зарница 8/4 300 м
[Cb cap Ac trans]
+28.5 +21.1 64 +36 +36 очень
душно
1000.6 986.4
03 21.06 СВ 2 4000 м дым 6/5 300 м
[Sc Ac trans]
+31.0 +21.4 57 +39 +42 очень
душно
1001.9 987.7 +27.5
06 21.06 штиль 0 4000 м мгла ясно +36.0 +20.6 41 +43 +70 опасность
перегрева
1002.3 988.1
09 21.06 Ю 2 4000 м мгла ясно +39.0 +19.9 33 +44 +62 опасность
перегрева
1000.2 986.2
12 21.06 Ю 2 4000 м мгла ясно +39.0 +21.8 37 +46 +51 опасность
перегрева
998.1 983.9 +39.5
15 21.06 4000 м мгла н/о +37.5 +22.5 42 +46 +46 опасность
перегрева
997.4 983.3
18 21.06 штиль 0 4000 м мгла 3/0
[Ac trans]
+35.0 +22.9 50 +45 +45 опасность
перегрева
998.6 984.2
21 21.06 штиль 0 4000 м дым 6/4 300 м
[Sc Ac trans]
+34.5 +23.1 52 +45 +45 опасность
перегрева
998.1 984.1
00 22.06 штиль 0 4000 м дым 5/1 1200 м
[Sc Ac trans]
+33.0 +23.0 56 +43 +43 опасность
перегрева
998.3 984.1
03 22.06 штиль 0 4000 м мгла ясно +35.0 +22.0 47 +44 +53 опасность
перегрева
999.5 985.3 +30.8
06 22.06 ЮВ 2 4000 м мгла ясно +40.0 +20.3 32 +45 +65 опасность
перегрева
999.8 985.6
09 22.06 ЮЗ 4 4000 м мгла ясно +42.0 +16.2 22 +43 +56 опасность
перегрева
998.1 998.0
12 22.06 З 3 4000 м мгла 8/3 1200 м
[Sc Ac As]
+39.5 +21.5 36 +47 +48 опасность
перегрева
996.2 982.1 +43.0
15 22.06 С 3 4000 м мгла 9/4 1200 м
[Sc Ac As]
+36.5 +22.1 43 +45 +45 опасность
перегрева
996.9 978.7
18 22.06 штиль 0 1000 м дым 9/4 1200 м
[Sc Ac As]
+32.0 +20.9 52 +39 +39 очень
душно
999.4 985.2
21 22.06 С 2 2000 м мгла 6/3 1200 м
[Sc Ac trans]
+30.0 +22.0 62 +39 +39 очень
душно
999.4 999.0
00 23.06 СВ 2 4000 м дым 3/0
[Ac trans]
+28.5 +21.1 64 +36 +36 очень
душно
999.8 985.6
03 23.06 СВ 3 10 км 4/0
[Ac trans]
+29.5 +21.4 62 +37 +42 очень
душно
1001.0 986.8 +27.7
06 23.06 СВ 3 10 км ясно +35.0 +18.3 37 +39 +56 опасность
солнечного
удара
1001.3 987.1
09 23.06 ЮВ 2 10 км ясно +38.0 +19.5 34 +43 +63 опасность
перегрева
999.7 1000.0
12 23.06 Ю 3 4000 м мгла 3/0
[Ac trans]
+39.0 +18.9 31 +43 +46 опасность
перегрева
997.3 983.2 +39.4
15 23.06 Ю 1 4000 м мгла 4/0
[Ac trans]
+37.5 +20.7 38 +44 +44 опасность
перегрева
997.4 978.0
18 23.06 штиль 0 4000 м мгла ясно +34.5 +22.2 49 +43 +43 опасность
перегрева
998.0 983.8
21 23.06 ЮВ 2 4000 м дым ясно +32.0 +22.6 58 +42 +42 опасность
перегрева
997.8 1000.0
00 24.06 ЮВ 1 4000 м дым 5/0
[Ac trans]
+32.0 +22.6 58 +42 +42 опасность
перегрева
997.7 994.9
03 24.06 Ю 2 4000 м дым 5/4 300 м
[Sc Ac trans]
+34.0 +22.5 51 +43 +47 опасность
перегрева
998.7 984.5 +29.3
06 24.06 З 3 4000 м мгла 4/0
[Ac trans]
+37.5 +23.4 45 +48 +61 опасность
перегрева
998.9 984.7
09 24.06 ЮЗ 3 4000 м мгла 1/1 1200 м
[Cu hum]
+41.0 +19.8 30 +46 +60 опасность
перегрева
997.4 997.0
12 24.06 ЮЗ 5 4000 м мгла 1/1 1200 м
[Cu hum]
+41.5 +20.5 30 +47 +49 опасность
перегрева
995.5 981.4 +42.2
18 24.06 штиль 0 1000 м пыль 6/4 300 м
[Sc Ac trans]
+33.5 +21.0 48 +41 +41 опасность
перегрева
997.0 982.9
21 24.06 ЮЗ 4 2000 м гроза без осадков 9/5 900 м
[Cb calv As trans]
+31.5 +22.0 57 +40 +40 очень
душно
996.5 997.0
00 25.06 штиль 0 4000 м смерч (торнадо) {гроза} 9/8 300 м
[Cb calv As trans]
+30.0 +24.3 72 +42 +42 опасность
перегрева
996.5 982.4 0.0
03 25.06 штиль 0 4000 м мгла {гроза} 8/4 300 м
[Sc Ac trans]
+33.0 +20.4 48 +40 +43 очень
душно
996.9 982.8 +29.5
06 25.06 ЮЗ 4 4000 м мгла 8/3 1200 м
[Sc Ac As]
+36.5 +21.2 41 +44 +48 опасность
перегрева
997.2 983.1
09 25.06 штиль 0 4000 м мгла 1/0
[Ac trans]
+40.0 +16.2 25 +42 +65 опасность
перегрева
995.5 1000.0
12 25.06 СЗ 3 4000 м мгла ясно +40.5 +20.0 31 +46 +50 опасность
перегрева
993.1 979.0 +41.8
15 25.06 ЮЗ 2 4000 м мгла 4/0
[Ac trans]
+37.5 +19.8 36 +43 +43 опасность
перегрева
993.4 1000.0
18 25.06 ЮВ 1 1000 м пыль 9/6 300 м
[Sc Ac As]
+34.0 +18.9 41 +39 +39 очень
душно
993.4 979.3

 

Местоположение метеостанции Multan (Пакистан): широта 30.20 долгота 71.43 высота над уровнем моря 123 м.

В архиве по умолчанию представлена погода в Multan за последнюю неделю. Архивные данные за месяц целиком и за предыдущие месяцы, начиная с января 2011 года, Вы можете получить, выбрав интересующий диапазон дат из раскрывающегося списка и нажав кнопку "Ввод!".


*Определитесь, кто Вы:
робот инопланетянин человек

Внимание! Время в таблицах - всемирное. Для получения местного времени необходимо прибавить поправку, которая в Multan равна 5 ч.

Смотрите также архив погоды в соседних городах и на ближайших метеорологических станциях:

Погода в Bahawalpur (Пакистан) (95 км)
Погода в Raifiqui Airbase (Пакистан) (98 км)
Погода в Barkhan (Пакистан) (168 км)
Погода в Bahawalnagar (Пакистан) (177 км)
Погода в Dera Ismail Khan (Пакистан) (187 км)
Погода в Khanpur (Пакистан) (187 км)
Погода в Faisal Abad (Пакистан) (210 км)
Погода в Zhob (Пакистан) (227 км)
Погода в Sargodha (Пакистан) (237 км)
Погода в Sri Ganganagar (Rajasthan, Индия) (239 км)

Пояснения к столбцам:

Ветер - указаны скорость ветра в м/с - средняя за 10 мин, порывы в срок и между сроками (в фигурных скобках) и направление, откуда дует ветер: С - северный, СВ - северо-восточный, В - восточный, ЮВ - юго-восточный, Ю - южный, ЮЗ - юго-западный, З - западный, СЗ - северо-западный.
Видимость - горизонтальная дальность видимости в метрах или километрах. При видимости от 1 до 10 км при отсутствии осадков обычно наблюдается дымка, при ухудшении видимости до 1 км и менее - туман. В сухую погоду видимость может ухудшаться дымом, пылью или мглою.
Явления - указаны атмосферные явления, наблюдавшиеся в срок или в последний час перед сроком; фигурными скобками обозначены явления, наблюдавшиеся между сроками (за 1-3 часа до срока); квадратными скобками обозначены град или гололедные отложения с указанием их диаметра в мм.
Облачность - указаны через наклонную черту общая и нижняя облачность в баллах и высота нижней границы облаков в метрах; квадратными скобками обозначены формы облаков: Ci - перистые, Cs - перисто-слоистые, Cc - перисто-кучевые, Ac - высококучевые, As - высокослоистые, Sc - слоисто-кучевые, Ns - слоисто-дождевые, Cu - кучевые, Cb - кучево-дождевые. Подробнее классификацию облаков см. в Атласе облаков (PDF).
T - Температура воздуха - температура, измеренная на высоте 2 м над землей.
Td - Температура точки росы - температура, при понижении до которой содержащийся в воздухе водяной пар достигнет насыщения.
f - Относительная влажность воздуха - влажноcть воздуха, измеренная на высоте 2 м над землей.
Te - Эффективная температура - температура, которую ощущает одетый по сезону человек в тени. Характеристика душности погоды. При расчете учитывается влияние влажности воздуха и скорости ветра на теплоощущения человека.
Tes - Эффективная температура на солнце - температура, которую ощущает человек, с поправкой на солнечный нагрев. Характеристика знойности погоды. Зависит от высоты солнца над горизонтом, облачности и скорости ветра. Ночью, в пасмурную погоду, а также при ветре 12 м/с и более поправка равна нулю.
P - Атмосферное давление - приведенное к уровню моря атмосферное давление.
Po - Атмосферное давление - измеренное на уровне метеостанции атмосферное давление.
Tmin - Минимальная температура - минимум температуры воздуха на высоте 2 м над землей.
Tmax - Максимальная температура - максимум температуры воздуха на высоте 2 м над землей.
R - Количество осадков - Количество выпавших осадков за период времени, мм. При наведении курсора мыши на число - период времени, за который выпало указанное количество осадков.
R24 - Количество осадков - Количество выпавших осадков за 24 часа, мм.
S - Снежный покров - Высота снежного покрова, см. При наведении курсора мыши на число - состояние снежного покрова и степень покрытия местности в баллах.